星链-34301 (STARLINK-34301)

导读

STARLINK-34301是美国SpaceX公司星链(Starlink)低轨互联网星座中的一颗卫星,于2025年6月13日由美国发射升空,属于星链巨型星座部署计划的一部分。该卫星运行于近地轨道,是SpaceX构建全球高速卫星互联网组网的组成单元,旨在为全球偏远地区提供低延迟宽带互联网接入服务,助力全球网络覆盖的完善,推动卫星互联网服务普及。

基本信息
目录编号:
64349
目录名称:
STARLINK-34301
国际标识:
2025-126F
轨道中心:
EARTH
卫星名称:
星链-34301
卫星全名:
星链-34301 (STARLINK-34301)
卫星状态:
在轨 (已飞行449 天)
发射日期:
2025-06-13 UTC
国别 :
美国 (US)
星等 :
--
轨道信息
数据来源 国际轨道数据
星历时间: 2026-09-05T12:00:02+0800
8小时前
查看轨道信息
半长轴: 6877.493km
偏心率: 0.0003097
轨道倾角: 70.002°
近地点辐角 286.343°
升交点赤经 301.618°
平近点角 79.853°
近地点: 497.226km
远地点: 501.486km
周期: 94.603分钟
每日圈数: 15.221504
详细信息
固有亮度:
5
最大亮度:
2.5
卫星平台:
Starlink V1.0
覆盖范围:
全球
运营商:
太空探索技术公司
运营商所在国:
美国
制造商(研发单位):
太空探索技术公司
制造商所在国:
美国
使用方式:
暂无
卫星简介
Starlink 计划是 SpaceX 推出的全球卫星互联网项目,通过发射低轨道卫星,为全球尤其是偏远地区提供高速、低延迟的互联网服务。自 2019 年起,Starlink 已部署数千颗卫星,旨在缩小全球数字鸿沟,推动互联网普及。该项目还为军事、航空等行业提供通信支持,带来广泛经济效益。
2D轨道图
3D轨道图
轨道高度分析图
轨道倾角分析图
轨道综合分析图
查看轨道综合分析图
交会数据列表
事件ID 空间交会对象 最接近时刻(TCA) 交会距离 交会风险概率(CRP) 交会风险指数(CRI) 操作
CDM_260905-193905-845906-434921
2026-09-05T
19:39:48+0000
1.198 km
极远距离
1.293262E-5 中风险 0.57
CDM_260905-023306-434906-677221
IHI-SAT2 (66772)
2026-09-05T
02:33:19+0000
0.983 km
远距离
1.228919E-5 中风险 0.57
CDM_260905-210605-985306-434921
2026-09-05T
21:06:39+0000
1.499 km
极远距离
3.368414E-6 低风险 0.46
CDM_260905-220605-690806-434921
2026-09-05T
22:06:43+0000
1.871 km
极远距离
3.087973E-6 低风险 0.45
CDM_260905-190705-619306-434921
HAWK-7B (56193)
2026-09-05T
19:07:27+0000
1.968 km
极远距离
3.015012E-6 低风险 0.45
CDM_260906-063706-226206-434921
2026-09-06T
06:37:21+0000
1.986 km
极远距离
2.715181E-6 低风险 0.44
CDM_260906-121106-434906-518121
2026-09-06T
12:11:45+0000
2.116 km
极远距离
2.526098E-6 低风险 0.43
CDM_260906-105206-434906-694021
2026-09-06T
10:52:05+0000
1.804 km
极远距离
2.393625E-6 低风险 0.43
CDM_260906-062606-434906-544021
2026-09-06T
06:26:40+0000
2.183 km
极远距离
2.327409E-6 低风险 0.42
CDM_260905-142405-620006-434921
HAWK-7C (56200)
2026-09-05T
14:24:20+0000
2.554 km
极远距离
1.708273E-6 低风险 0.4